Regional Weather Roundup
Issued by NWS Sioux Falls, SD

Home | Current Version | Previous Version | Graphics & Text | Print | Product List | Glossary On
Versions: 1 2 3 4 5 6 7 8 9 10 11 12 13 14 15 16 17 18 19 20 21 22 23 24 25 26 27 28 29 30 31 32 33 34 35 36 37 38 39 40 41 42 43 44 45 46 47 48 49 50
000
ASUS43 KFSD 192102
RWRFSD

WEATHER ROUNDUP FOR SE SOUTH DAKOTA/SW MINNESOTA/NW IOWA
NATIONAL WEATHER SERVICE SIOUX FALLS SD
400 PM CDT FRI SEP 19 2014

NOTE: "FAIR" INDICATES FEW OR NO CLOUDS BELOW 12,000 FEET WITH NO
SIGNIFICANT WEATHER AND OR OBSTRUCTIONS TO VISIBILITY.


SDZ038>040-050-052>070-192200-
SOUTHEAST SOUTH DAKOTA

CITY           SKY/WX    TMP DP  RH WIND       PRES   REMARKS
CHAMBERLAIN    MOSUNNY   87  56  35 W9        29.71S
HURON          PTSUNNY   84  62  47 W6        29.66S
MADISON        FAIR      81  66  61 W10G20    29.69F
MITCHELL       PTSUNNY   86  65  49 W9        29.68S
SIOUX FALLS    MOSUNNY   88  65  46 SW12G18   29.69S
WINNER         FAIR      89  53  29 NW10      29.75R
YANKTON        SUNNY     90  64  43 SW20G25   29.69S
$$

MNZ071-072-080-081-089-090-097-098-192200-
SOUTHWEST MINNESOTA

CITY           SKY/WX    TMP DP  RH WIND       PRES   REMARKS
FAIRMONT       MOSUNNY   84  61  45 S22G31    29.69S
JACKSON        MOSUNNY   82  63  51 SW18G29   29.71S
LUVERNE        SUNNY     88  61  40 SW18G26   29.70S
MARSHALL       PTSUNNY   82  64  54 SW16G24   29.64F
MONTEVIDEO     PTSUNNY   79  66  65 W5        29.65S
PIPESTONE      MOSUNNY   84  64  51 W18       29.70S
REDWOOD FALLS  MOSUNNY   82  65  56 SW20      29.65F
TRACY          MOSUNNY   83  66  56 SW15G25   29.67F
WINDOM         MOSUNNY   84  64  51 SW14G20   29.70S
WORTHINGTON    MOSUNNY   82  66  57 SW17G24   29.71S
$$

IAZ001>003-012>014-020>022-031-032-NEZ013-014-SDZ071-192200-
NORTHWEST IOWA

CITY           SKY/WX    TMP DP  RH WIND       PRES   REMARKS
CHEROKEE       SUNNY     85  67  55 SW21      29.74S
DENISON        SUNNY     81  68  65 S20G29    29.78F
ESTHERVILLE    MOSUNNY   83  64  52 S25G35    29.69F
LE MARS        SUNNY     88  66  48 SW22G33   29.72S
ORANGE CITY    SUNNY     88  63  42 SW24G32   29.72S
SHELDON        SUNNY     84  68  58 S16G30    29.70S
SIOUX CITY     SUNNY     89  65  44 S14G25    29.73F
SPENCER        MOSUNNY   85  64  49 SW23G32   29.72S
STORM LAKE     SUNNY     81  70  69 SW22G31   29.77F
$$

ABBREVIATIONS USED IN REMARKS
   TC - TEMPERATURE IN CELSIUS
  WCI - WIND CHILL INDEX
   HX - HEAT INDEX
  VSB - VISIBILITY




USA.gov is the U.S. government's official web portal to all federal, state and local government web resources and services.